• In Czech Republic
  • List of Countries
  • For 7 days
  • Water Temperature
  • Satellite Maps
  • Weather Map
  • Weather Widgets
  • user-avatar
    Login

    Hourly Weather La Massana

    Today, 19 November, Sunday

    Time Temperature Precipitation Wind Pressure Humidity
    00:00 -3°C° 0 mm 2 mps 611 mmHg 46%
    01:00 -3°C° 0 mm 2 mps 611 mmHg 45%
    02:00 -3°C° 0 mm 2 mps 611 mmHg 44%
    03:00 -3°C° 0 mm 2 mps 611 mmHg 43%
    04:00 -3°C° 0 mm 2 mps 611 mmHg 42%
    05:00 -3°C° 0 mm 2 mps 611 mmHg 42%
    06:00 -3°C° 0 mm 2 mps 611 mmHg 41%
    07:00 -2°C° 0 mm 2 mps 612 mmHg 38%
    08:00 +1°C° 0 mm 2 mps 613 mmHg 36%
    09:00 +3°C° 0 mm 2 mps 614 mmHg 33%
    10:00 +4°C° 0 mm 2 mps 614 mmHg 33%
    11:00 +6°C° 0 mm 2 mps 615 mmHg 33%
    12:00 +7°C° 0 mm 2 mps 615 mmHg 33%
    13:00 +6°C° 0 mm 2 mps 615 mmHg 37%
    14:00 +6°C° 0 mm 2 mps 614 mmHg 41%
    15:00 +5°C° 0 mm 2 mps 614 mmHg 45%
    16:00 +3°C° 0 mm 2 mps 613 mmHg 51%
    17:00 +1°C° 0 mm 2 mps 613 mmHg 57%
    18:00 -2°C° 0 mm 2 mps 612 mmHg 64%
    19:00 -2°C° 0 mm 2 mps 612 mmHg 64%
    20:00 -2°C° 0 mm 2 mps 612 mmHg 64%
    21:00 -2°C° 0 mm 2 mps 612 mmHg 64%
    22:00 -2°C° 0 mm 2 mps 612 mmHg 64%
    23:00 -2°C° 0 mm 2 mps 612 mmHg 63%

    Tomorrow, 20 November, Monday

    Time Temperature Precipitation Wind Pressure Humidity
    00:00 -2°C° 0 mm 2 mps 612 mmHg 63%
    01:00 -2°C° 0 mm 2 mps 612 mmHg 62%
    02:00 -2°C° 0 mm 2 mps 612 mmHg 62%
    03:00 -2°C° 0 mm 2 mps 612 mmHg 61%
    04:00 -2°C° 0 mm 2 mps 612 mmHg 61%
    05:00 -2°C° 0 mm 2 mps 612 mmHg 61%
    06:00 -2°C° 0 mm 2 mps 612 mmHg 61%
    07:00 +2°C° 0 mm 1 mps 613 mmHg 57%
    08:00 +4°C° 0 mm 1 mps 614 mmHg 53%
    09:00 +6°C° 0 mm 1 mps 615 mmHg 49%
    10:00 +7°C° 0 mm 1 mps 615 mmHg 45%
    11:00 +8°C° 0 mm 1 mps 616 mmHg 42%
    12:00 +10°C° 0 mm 1 mps 616 mmHg 39%
    13:00 +9°C° 0 mm 1 mps 616 mmHg 43%
    14:00 +9°C° 0 mm 1 mps 615 mmHg 47%
    15:00 +8°C° 0 mm 1 mps 615 mmHg 50%
    16:00 +6°C° 0 mm 1 mps 614 mmHg 57%
    17:00 +4°C° 0 mm 1 mps 613 mmHg 63%
    18:00 +2°C° 0 mm 1 mps 612 mmHg 69%
    19:00 +2°C° 0 mm 1 mps 612 mmHg 67%
    20:00 +2°C° 0 mm 1 mps 612 mmHg 66%
    21:00 +2°C° 0 mm 1 mps 612 mmHg 64%
    22:00 +2°C° 0 mm 1 mps 612 mmHg 61%
    23:00 +2°C° 0 mm 1 mps 612 mmHg 58%

    Day after tomorrow, 21 November, Tuesday

    Time Temperature Precipitation Wind Pressure Humidity
    00:00 +2°C° 0 mm 1 mps 612 mmHg 55%
    01:00 +2°C° 0 mm 1 mps 612 mmHg 52%
    02:00 +2°C° 0 mm 1 mps 612 mmHg 48%
    03:00 +2°C° 0 mm 1 mps 612 mmHg 44%
    04:00 +1°C° 0 mm 1 mps 612 mmHg 42%
    05:00 +1°C° 0 mm 1 mps 611 mmHg 40%
    06:00 +1°C° 0 mm 1 mps 611 mmHg 37%
    07:00 +3°C° 0 mm 1 mps 612 mmHg 36%
    08:00 +5°C° 0 mm 1 mps 613 mmHg 34%
    09:00 +6°C° 0 mm 0 mps 614 mmHg 33%
    10:00 +8°C° 0 mm 1 mps 614 mmHg 31%
    11:00 +10°C° 0 mm 1 mps 615 mmHg 29%
    12:00 +11°C° 0 mm 1 mps 615 mmHg 28%
    13:00 +11°C° 0 mm 1 mps 615 mmHg 32%
    14:00 +10°C° 0 mm 1 mps 614 mmHg 37%
    15:00 +9°C° 0 mm 1 mps 613 mmHg 42%
    16:00 +7°C° 0 mm 1 mps 613 mmHg 46%
    17:00 +5°C° 0 mm 1 mps 612 mmHg 50%
    18:00 +3°C° 0 mm 1 mps 611 mmHg 54%
    19:00 +3°C° 0 mm 1 mps 611 mmHg 53%
    20:00 +3°C° 0 mm 1 mps 611 mmHg 52%
    21:00 +3°C° 0 mm 1 mps 611 mmHg 51%
    22:00 +2°C° 0 mm 1 mps 611 mmHg 51%
    23:00 +2°C° 0 mm 1 mps 610 mmHg 50%

    22 November, Wednesday

    Time Temperature Precipitation Wind Pressure Humidity
    00:00 +2°C° 0 mm 1 mps 610 mmHg 49%
    01:00 +2°C° 0 mm 1 mps 610 mmHg 49%
    02:00 +2°C° 0 mm 1 mps 610 mmHg 48%
    03:00 +1°C° 0 mm 1 mps 609 mmHg 47%
    04:00 +1°C° 0 mm 1 mps 609 mmHg 47%
    05:00 +1°C° 0 mm 1 mps 609 mmHg 46%
    06:00 +1°C° 0 mm 1 mps 609 mmHg 45%
    07:00 +3°C° 0 mm 1 mps 610 mmHg 43%
    08:00 +3°C° 0 mm 2 mps 610 mmHg 41%
    09:00 +5°C° 0 mm 2 mps 611 mmHg 39%
    10:00 +6°C° 0 mm 2 mps 611 mmHg 38%
    11:00 +8°C° 0 mm 3 mps 611 mmHg 37%
    12:00 +9°C° 0 mm 3 mps 612 mmHg 35%
    13:00 +8°C° 0 mm 3 mps 611 mmHg 39%
    14:00 +8°C° 0 mm 3 mps 611 mmHg 43%
    15:00 +7°C° 0 mm 3 mps 610 mmHg 47%
    16:00 +4°C° 0 mm 3 mps 609 mmHg 57%
    17:00 +3°C° 0 mm 2 mps 609 mmHg 67%
    18:00 +1°C° 0 mm 2 mps 608 mmHg 76%
    19:00 +1°C° 0 mm 2 mps 608 mmHg 76%
    20:00 +1°C° 0 mm 2 mps 608 mmHg 76%
    21:00 +1°C° 0 mm 2 mps 608 mmHg 75%
    22:00 -1°C° 0 mm 2 mps 608 mmHg 75%
    23:00 -1°C° 0 mm 2 mps 608 mmHg 74%

    23 November, Thursday

    Time Temperature Precipitation Wind Pressure Humidity
    00:00 -1°C° 0 mm 2 mps 608 mmHg 73%
    01:00 -1°C° 0 mm 2 mps 608 mmHg 73%
    02:00 -1°C° 0 mm 2 mps 608 mmHg 72%
    03:00 -2°C° 0 mm 2 mps 608 mmHg 71%
    04:00 -2°C° 0 mm 2 mps 608 mmHg 69%
    05:00 -2°C° 0 mm 2 mps 608 mmHg 67%
    06:00 -2°C° 0 mm 2 mps 609 mmHg 64%
    07:00 +1°C° 0 mm 2 mps 610 mmHg 60%
    08:00 +3°C° 0 mm 2 mps 611 mmHg 55%
    09:00 +4°C° 0 mm 2 mps 612 mmHg 50%
    10:00 +6°C° 0 mm 2 mps 612 mmHg 47%
    11:00 +7°C° 0 mm 2 mps 613 mmHg 45%
    12:00 +9°C° 0 mm 3 mps 614 mmHg 42%
    13:00 +8°C° 0 mm 2 mps 613 mmHg 45%
    14:00 +8°C° 0 mm 2 mps 613 mmHg 48%
    15:00 +8°C° 0 mm 2 mps 613 mmHg 51%
    16:00 +6°C° 0 mm 2 mps 612 mmHg 57%
    17:00 +4°C° 0 mm 2 mps 611 mmHg 63%
    18:00 +3°C° 0 mm 1 mps 611 mmHg 69%
    19:00 +1°C° 0 mm 2 mps 611 mmHg 69%
    20:00 +1°C° 0 mm 2 mps 611 mmHg 69%
    21:00 +1°C° 0 mm 2 mps 611 mmHg 69%
    22:00 +1°C° 0 mm 2 mps 611 mmHg 71%
    23:00 +1°C° 0 mm 2 mps 611 mmHg 73%

    24 November, Friday

    Time Temperature Precipitation Wind Pressure Humidity
    00:00 +1°C° 0 mm 2 mps 611 mmHg 74%
    01:00 +1°C° 0 mm 2 mps 611 mmHg 74%
    02:00 +1°C° 0 mm 2 mps 611 mmHg 74%
    03:00 +1°C° 0 mm 2 mps 611 mmHg 74%
    04:00 +1°C° 0 mm 2 mps 611 mmHg 74%
    05:00 +1°C° 0 mm 2 mps 611 mmHg 73%
    06:00 +1°C° 0 mm 2 mps 611 mmHg 72%
    07:00 +2°C° 0 mm 2 mps 612 mmHg 67%
    08:00 +4°C° 0 mm 2 mps 612 mmHg 62%
    09:00 +5°C° 0 mm 2 mps 613 mmHg 57%
    10:00 +7°C° 0 mm 3 mps 613 mmHg 52%
    11:00 +8°C° 0 mm 3 mps 614 mmHg 48%
    12:00 +9°C° 0 mm 3 mps 614 mmHg 43%
    13:00 +9°C° 0 mm 3 mps 613 mmHg 44%
    14:00 +8°C° 0 mm 3 mps 613 mmHg 45%
    15:00 +8°C° 0 mm 3 mps 612 mmHg 46%
    16:00 +5°C° 0 mm 3 mps 611 mmHg 52%
    17:00 +3°C° 0 mm 3 mps 611 mmHg 57%
    18:00 +1°C° 0 mm 3 mps 610 mmHg 62%
    19:00 +1°C° 0 mm 3 mps 610 mmHg 62%
    20:00 +1°C° 0 mm 3 mps 610 mmHg 61%
    21:00 +1°C° 0 mm 3 mps 610 mmHg 61%
    22:00 +1°C° 0 mm 3 mps 610 mmHg 60%
    23:00 +1°C° 0 mm 3 mps 610 mmHg 59%
    Show more